datetime,flow
1923-10-01,47.0
1923-10-02,47.0
1923-10-03,48.0
1923-10-04,49.0
1923-10-05,47.0
1923-10-06,46.0
1923-10-07,53.0
1923-10-08,60.0
1923-10-09,74.0
1923-10-10,98.0
1923-10-11,122.0
1923-10-12,120.0
1923-10-13,130.0
1923-10-14,122.0
1923-10-15,135.0
1923-10-16,127.0
1923-10-17,127.0
1923-10-18,120.0
1923-10-19,120.0
1923-10-20,117.0
1923-10-21,115.0
1923-10-22,117.0
1923-10-23,166.0
1923-10-24,146.0
1923-10-25,89.0
1923-10-26,39.0
1923-10-27,37.0
1923-10-28,39.0
1923-10-29,40.0
1923-10-30,37.0
1923-10-31,43.0
1923-11-01,44.0
1923-11-02,38.0
1923-11-03,33.0
1923-11-04,35.0
1923-11-05,37.0
1923-11-06,33.0
1923-11-07,34.0
1923-11-08,32.0
1923-11-09,43.0
1923-11-10,39.0
1923-11-11,68.0
1923-11-12,57.0
1923-11-13,35.0
1923-11-14,35.0
1923-11-15,35.0
1923-11-16,35.0
1923-11-17,35.0
1923-11-18,35.0
1923-11-19,35.0
1923-11-20,35.0
1923-11-21,35.0
1923-11-22,35.0
1923-11-23,35.0
1923-11-24,35.0
1923-11-25,35.0
1923-11-26,35.0
1923-11-27,35.0
1923-11-28,35.0
1923-11-29,35.0
1923-11-30,35.0
1923-12-01,30.0
1923-12-02,30.0
1923-12-03,30.0
1923-12-04,30.0
1923-12-05,30.0
1923-12-06,30.0
1923-12-07,30.0
1923-12-08,30.0
1923-12-09,30.0
1923-12-10,30.0
1923-12-11,30.0
1923-12-12,30.0
1923-12-13,30.0
1923-12-14,30.0
1923-12-15,30.0
1923-12-16,30.0
1923-12-17,30.0
1923-12-18,30.0
1923-12-19,30.0
1923-12-20,60.0
1923-12-21,76.0
1923-12-22,54.0
1923-12-23,38.0
1923-12-24,35.0
1923-12-25,39.0
1923-12-26,45.0
1923-12-27,72.0
1923-12-28,56.0
1923-12-29,49.0
1923-12-30,49.0
1923-12-31,33.0
1924-01-01,44.0
1924-01-02,45.0
1924-01-03,36.0
1924-01-04,37.0
1924-01-05,49.0
1924-01-06,44.0
1924-01-07,43.0
1924-01-08,39.0
1924-01-09,44.0
1924-01-10,37.0
1924-01-11,39.0
1924-01-12,44.0
1924-01-13,26.0
1924-01-14,26.0
1924-01-15,27.0
1924-01-16,29.0
1924-01-17,33.0
1924-01-18,36.0
1924-01-19,45.0
1924-01-20,49.0
1924-01-21,36.0
1924-01-22,35.0
1924-01-23,38.0
1924-01-24,40.0
1924-01-25,39.0
1924-01-26,40.0
1924-01-27,44.0
1924-01-28,46.0
1924-01-29,46.0
1924-01-30,46.0
1924-01-31,49.0
1924-02-01,53.0
1924-02-02,60.0
1924-02-03,50.0
1924-02-04,46.0
1924-02-05,45.0
1924-02-06,49.0
1924-02-07,54.0
1924-02-08,54.0
1924-02-09,57.0
1924-02-10,53.0
1924-02-11,39.0
1924-02-12,36.0
1924-02-13,35.0
1924-02-14,44.0
1924-02-15,46.0
1924-02-16,45.0
1924-02-17,50.0
1924-02-18,50.0
1924-02-19,45.0
1924-02-20,45.0
1924-02-21,52.0
1924-02-22,46.0
1924-02-23,44.0
1924-02-24,44.0
1924-02-25,42.0
1924-02-26,44.0
1924-02-27,54.0
1924-02-28,53.0
1924-02-29,35.0
1924-03-01,35.0
1924-03-02,35.0
1924-03-03,39.0
1924-03-04,35.0
1924-03-05,35.0
1924-03-06,33.0
1924-03-07,34.0
1924-03-08,38.0
1924-03-09,34.0
1924-03-10,36.0
1924-03-11,40.0
1924-03-12,40.0
1924-03-13,39.0
1924-03-14,50.0
1924-03-15,53.0
1924-03-16,50.0
1924-03-17,33.0
1924-03-18,43.0
1924-03-19,39.0
1924-03-20,40.0
1924-03-21,40.0
1924-03-22,37.0
1924-03-23,27.0
1924-03-24,27.0
1924-03-25,31.0
1924-03-26,33.0
1924-03-27,43.0
1924-03-28,57.0
1924-03-29,33.0
1924-03-30,33.0
1924-03-31,33.0
1924-04-01,42.0
1924-04-02,60.0
1924-04-03,94.0
1924-04-04,110.0
1924-04-05,130.0
1924-04-06,181.0
1924-04-07,203.0
1924-04-08,288.0
1924-04-09,246.0
1924-04-10,200.0
1924-04-11,226.0
1924-04-12,288.0
1924-04-13,410.0
1924-04-14,590.0
1924-04-15,465.0
1924-04-16,348.0
1924-04-17,264.0
1924-04-18,226.0
1924-04-19,209.0
1924-04-20,246.0
1924-04-21,325.0
1924-04-22,450.0
1924-04-23,590.0
1924-04-24,668.0
1924-04-25,510.0
1924-04-26,432.0
1924-04-27,387.0
1924-04-28,320.0
1924-04-29,290.0
1924-04-30,289.0
1924-05-01,288.0
1924-05-02,290.0
1924-05-03,362.0
1924-05-04,482.0
1924-05-05,523.0
1924-05-06,505.0
1924-05-07,487.0
1924-05-08,470.0
1924-05-09,482.0
1924-05-10,523.0
1924-05-11,555.0
1924-05-12,551.0
1924-05-13,570.0
1924-05-14,523.0
1924-05-15,328.0
1924-05-16,328.0
1924-05-17,330.0
1924-05-18,387.0
1924-05-19,354.0
1924-05-20,320.0
1924-05-21,325.0
1924-05-22,323.0
1924-05-23,322.0
1924-05-24,321.0
1924-05-25,320.0
1924-05-26,319.0
1924-05-27,318.0
1924-05-28,309.0
1924-05-29,309.0
1924-05-30,285.0
1924-05-31,285.0
1924-06-01,274.0
1924-06-02,254.0
1924-06-03,325.0
1924-06-04,414.0
1924-06-05,439.0
1924-06-06,497.0
1924-06-07,447.0
1924-06-08,417.0
1924-06-09,388.0
1924-06-10,268.0
1924-06-11,181.0
1924-06-12,172.0
1924-06-13,172.0
1924-06-14,163.0
1924-06-15,166.0
1924-06-16,135.0
1924-06-17,110.0
1924-06-18,96.0
1924-06-19,82.0
1924-06-20,80.0
1924-06-21,71.0
1924-06-22,62.0
1924-06-23,53.0
1924-06-24,44.0
1924-06-25,35.0
1924-06-26,27.0
1924-06-27,8.5
1924-06-28,8.5
1924-06-29,8.5
1924-06-30,8.5
1924-07-01,46.0
1924-07-02,40.0
1924-07-03,35.0
1924-07-04,33.0
1924-07-05,44.0
1924-07-06,59.0
1924-07-07,46.0
1924-07-08,35.0
1924-07-09,31.0
1924-07-10,66.0
1924-07-11,63.0
1924-07-12,52.0
1924-07-13,46.0
1924-07-14,47.0
1924-07-15,44.0
1924-07-16,41.0
1924-07-17,39.0
1924-07-18,36.0
1924-07-19,33.0
1924-07-20,30.0
1924-07-21,27.0
1924-07-22,25.0
1924-07-23,22.0
1924-07-24,20.0
1924-07-25,20.0
1924-07-26,20.0
1924-07-27,20.0
1924-07-28,20.0
1924-07-29,20.0
1924-07-30,20.0
1924-07-31,20.0
1924-08-01,15.0
1924-08-02,15.0
1924-08-03,15.0
1924-08-04,15.0
1924-08-05,15.0
1924-08-06,15.0
1924-08-07,15.0
1924-08-08,15.0
1924-08-09,15.0
1924-08-10,15.0
1924-08-11,15.0
1924-08-12,15.0
1924-08-13,15.0
1924-08-14,15.0
1924-08-15,15.0
1924-08-16,15.0
1924-08-17,15.0
1924-08-18,15.0
1924-08-19,15.0
1924-08-20,15.0
1924-08-21,15.0
1924-08-22,15.0
1924-08-23,15.0
1924-08-24,15.0
1924-08-25,15.0
1924-08-26,15.0
1924-08-27,15.0
1924-08-28,15.0
1924-08-29,15.0
1924-08-30,15.0
1924-08-31,15.0
1924-09-01,20.0
1924-09-02,20.0
1924-09-03,20.0
1924-09-04,20.0
1924-09-05,20.0
1924-09-06,20.0
1924-09-07,20.0
1924-09-08,20.0
1924-09-09,20.0
1924-09-10,20.0
1924-09-11,30.0
1924-09-12,29.0
1924-09-13,26.0
1924-09-14,25.0
1924-09-15,24.0
1924-09-16,24.0
1924-09-17,24.0
1924-09-18,25.0
1924-09-19,25.0
1924-09-20,25.0
1924-09-21,25.0
1924-09-22,25.0
1924-09-23,25.0
1924-09-24,26.0
1924-09-25,26.0
1924-09-26,25.0
1924-09-27,25.0
1924-09-28,24.0
1924-09-29,24.0
1924-09-30,24.0
1924-10-01,30.0
1924-10-02,30.0
1924-10-03,30.0
1924-10-04,30.0
1924-10-05,30.0
1924-10-06,30.0
1924-10-07,30.0
1924-10-08,30.0
1924-10-09,30.0
1924-10-10,30.0
1924-10-11,30.0
1924-10-12,30.0
1924-10-13,30.0
1924-10-14,30.0
1924-10-15,30.0
1924-10-16,30.0
1924-10-17,30.0
1924-10-18,30.0
1924-10-19,30.0
1924-10-20,30.0
1924-10-21,30.0
1924-10-22,30.0
1924-10-23,30.0
1924-10-24,30.0
1924-10-25,30.0
1924-10-26,30.0
1924-10-27,30.0
1924-10-28,30.0
1924-10-29,30.0
1924-10-30,30.0
1924-10-31,30.0
1924-11-01,28.0
1924-11-02,28.0
1924-11-03,28.0
1924-11-04,28.0
1924-11-05,28.0
1924-11-06,28.0
1924-11-07,27.0
1924-11-08,26.0
1924-11-09,30.0
1924-11-10,33.0
1924-11-11,38.0
1924-11-12,38.0
1924-11-13,38.0
1924-11-14,38.0
1924-11-15,38.0
1924-11-16,40.0
1924-11-17,40.0
1924-11-18,37.0
1924-11-19,39.0
1924-11-20,35.0
1924-11-21,34.0
1924-11-22,33.0
1924-11-23,36.0
1924-11-24,33.0
1924-11-25,31.0
1924-11-26,30.0
1924-11-27,31.0
1924-11-28,42.0
1924-11-29,40.0
1924-11-30,40.0
1924-12-01,37.0
1924-12-02,37.0
1924-12-03,36.0
1924-12-04,36.0
1924-12-05,36.0
1924-12-06,38.0
1924-12-07,37.0
1924-12-08,37.0
1924-12-09,38.0
1924-12-10,36.0
1924-12-11,37.0
1924-12-12,37.0
1924-12-13,40.0
1924-12-14,41.0
1924-12-15,42.0
1924-12-16,45.0
1924-12-17,44.0
1924-12-18,41.0
1924-12-19,37.0
1924-12-20,35.0
1924-12-21,34.0
1924-12-22,33.0
1924-12-23,32.0
1924-12-24,30.0
1924-12-25,30.0
1924-12-26,30.0
1924-12-27,30.0
1924-12-28,31.0
1924-12-29,31.0
1924-12-30,31.0
1924-12-31,31.0
1925-01-01,25.0
1925-01-02,25.0
1925-01-03,25.0
1925-01-04,25.0
1925-01-05,25.0
1925-01-06,25.0
1925-01-07,25.0
1925-01-08,25.0
1925-01-09,25.0
1925-01-10,25.0
1925-01-11,25.0
1925-01-12,25.0
1925-01-13,25.0
1925-01-14,25.0
1925-01-15,25.0
1925-01-16,25.0
1925-01-17,25.0
1925-01-18,25.0
1925-01-19,25.0
1925-01-20,25.0
1925-01-21,25.0
1925-01-22,25.0
1925-01-23,25.0
1925-01-24,30.0
1925-01-25,29.0
1925-01-26,28.0
1925-01-27,29.0
1925-01-28,27.0
1925-01-29,26.0
1925-01-30,27.0
1925-01-31,26.0
1925-02-01,26.0
1925-02-02,26.0
1925-02-03,28.0
1925-02-04,28.0
1925-02-05,32.0
1925-02-06,33.0
1925-02-07,39.0
1925-02-08,30.0
1925-02-09,30.0
1925-02-10,40.0
1925-02-11,30.0
1925-02-12,29.0
1925-02-13,26.0
1925-02-14,28.0
1925-02-15,30.0
1925-02-16,30.0
1925-02-17,30.0
1925-02-18,30.0
1925-02-19,30.0
1925-02-20,32.0
1925-02-21,33.0
1925-02-22,29.0
1925-02-23,26.0
1925-02-24,33.0
1925-02-25,30.0
1925-02-26,32.0
1925-02-27,32.0
1925-02-28,32.0
1925-03-01,33.0
1925-03-02,35.0
1925-03-03,33.0
1925-03-04,37.0
1925-03-05,36.0
1925-03-06,27.0
1925-03-07,36.0
1925-03-08,48.0
1925-03-09,43.0
1925-03-10,52.0
1925-03-11,37.0
1925-03-12,36.0
1925-03-13,35.0
1925-03-14,35.0
1925-03-15,36.0
1925-03-16,39.0
1925-03-17,37.0
1925-03-18,35.0
1925-03-19,35.0
1925-03-20,39.0
1925-03-21,42.0
1925-03-22,45.0
1925-03-23,52.0
1925-03-24,65.0
1925-03-25,74.0
1925-03-26,85.0
1925-03-27,94.0
1925-03-28,97.0
1925-03-29,78.0
1925-03-30,85.0
1925-03-31,87.0
1925-04-01,99.0
1925-04-02,80.0
1925-04-03,92.0
1925-04-04,94.0
1925-04-05,102.0
1925-04-06,109.0
1925-04-07,92.0
1925-04-08,76.0
1925-04-09,72.0
1925-04-10,70.0
1925-04-11,76.0
1925-04-12,87.0
1925-04-13,82.0
1925-04-14,74.0
1925-04-15,78.0
1925-04-16,78.0
1925-04-17,74.0
1925-04-18,76.0
1925-04-19,74.0
1925-04-20,69.0
1925-04-21,63.0
1925-04-22,59.0
1925-04-23,56.0
1925-04-24,56.0
1925-04-25,56.0
1925-04-26,54.0
1925-04-27,52.0
1925-04-28,47.0
1925-04-29,45.0
1925-04-30,47.0
1925-05-01,45.0
1925-05-02,43.0
1925-05-03,43.0
1925-05-04,42.0
1925-05-05,36.0
1925-05-06,35.0
1925-05-07,30.0
1925-05-08,30.0
1925-05-09,29.0
1925-05-10,28.0
1925-05-11,29.0
1925-05-12,29.0
1925-05-13,28.0
1925-05-14,28.0
1925-05-15,27.0
1925-05-16,21.0
1925-05-17,22.0
1925-05-18,24.0
1925-05-19,20.0
1925-05-20,19.0
1925-05-21,17.0
1925-05-22,20.0
1925-05-23,21.0
1925-05-24,21.0
1925-05-25,21.0
1925-05-26,20.0
1925-05-27,40.0
1925-05-28,33.0
1925-05-29,33.0
1925-05-30,33.0
1925-05-31,33.0
1925-06-01,32.0
1925-06-02,35.0
1925-06-03,32.0
1925-06-04,30.0
1925-06-05,20.0
1925-06-06,20.0
1925-06-07,20.0
1925-06-08,20.0
1925-06-09,20.0
1925-06-10,20.0
1925-06-11,20.0
1925-06-12,20.0
1925-06-13,20.0
1925-06-14,20.0
1925-06-15,20.0
1925-06-16,20.0
1925-06-17,20.0
1925-06-18,20.0
1925-06-19,20.0
1925-06-20,20.0
1925-06-21,107.0
1925-06-22,30.0
1925-06-23,25.0
1925-06-24,25.0
1925-06-25,25.0
1925-06-26,25.0
1925-06-27,25.0
1925-06-28,25.0
1925-06-29,25.0
1925-06-30,25.0
1925-07-01,40.0
1925-07-02,40.0
1925-07-03,40.0
1925-07-04,40.0
1925-07-05,40.0
1925-07-06,40.0
1925-07-07,40.0
1925-07-08,40.0
1925-07-09,40.0
1925-07-10,40.0
1925-07-11,40.0
1925-07-12,40.0
1925-07-13,40.0
1925-07-14,40.0
1925-07-15,40.0
1925-07-16,40.0
1925-07-17,40.0
1925-07-18,40.0
1925-07-19,40.0
1925-07-20,40.0
1925-07-21,40.0
1925-07-22,40.0
1925-07-23,40.0
1925-07-24,40.0
1925-07-25,40.0
1925-07-26,40.0
1925-07-27,40.0
1925-07-28,40.0
1925-07-29,40.0
1925-07-30,40.0
1925-07-31,40.0
1925-08-01,60.0
1925-08-02,60.0
1925-08-03,60.0
1925-08-04,60.0
1925-08-05,60.0
1925-08-06,60.0
1925-08-07,60.0
1925-08-08,60.0
1925-08-09,60.0
1925-08-10,60.0
1925-08-11,60.0
1925-08-12,60.0
1925-08-13,60.0
1925-08-14,60.0
1925-08-15,60.0
1925-08-16,60.0
1925-08-17,60.0
1925-08-18,60.0
1925-08-19,60.0
1925-08-20,60.0
1925-08-21,60.0
1925-08-22,60.0
1925-08-23,60.0
1925-08-24,60.0
1925-08-25,60.0
1925-08-26,60.0
1925-08-27,60.0
1925-08-28,60.0
1925-08-29,60.0
1925-08-30,60.0
1925-08-31,60.0
1925-09-01,45.0
1925-09-02,45.0
1925-09-03,45.0
1925-09-04,45.0
1925-09-05,45.0
1925-09-06,45.0
1925-09-07,50.0
1925-09-08,45.0
1925-09-09,35.0
1925-09-10,90.0
1925-09-11,70.0
1925-09-12,52.0
1925-09-13,74.0
1925-09-14,61.0
1925-09-15,42.0
1925-09-16,39.0
1925-09-17,40.0
1925-09-18,39.0
1925-09-19,79.0
1925-09-20,99.0
1925-09-21,85.0
1925-09-22,80.0
1925-09-23,72.0
1925-09-24,74.0
1925-09-25,74.0
1925-09-26,56.0
1925-09-27,59.0
1925-09-28,57.0
1925-09-29,54.0
1925-09-30,48.0
1925-10-01,
1925-10-02,
1925-10-03,
1925-10-04,
1925-10-05,
1925-10-06,
1925-10-07,
1925-10-08,
1925-10-09,
1925-10-10,
1925-10-11,
1925-10-12,
1925-10-13,
1925-10-14,
1925-10-15,
1925-10-16,
1925-10-17,
1925-10-18,
1925-10-19,
1925-10-20,
1925-10-21,
1925-10-22,
1925-10-23,
1925-10-24,
1925-10-25,
1925-10-26,
1925-10-27,
1925-10-28,
1925-10-29,
1925-10-30,
1925-10-31,
1925-11-01,
1925-11-02,
1925-11-03,
1925-11-04,
1925-11-05,
1925-11-06,
1925-11-07,
1925-11-08,
1925-11-09,
1925-11-10,
1925-11-11,
1925-11-12,
1925-11-13,
1925-11-14,
1925-11-15,
1925-11-16,
1925-11-17,
1925-11-18,
1925-11-19,
1925-11-20,
1925-11-21,
1925-11-22,
1925-11-23,
1925-11-24,
1925-11-25,
1925-11-26,
1925-11-27,
1925-11-28,
1925-11-29,
1925-11-30,
1925-12-01,
1925-12-02,
1925-12-03,
1925-12-04,
1925-12-05,
1925-12-06,
1925-12-07,
1925-12-08,
1925-12-09,
1925-12-10,
1925-12-11,
1925-12-12,
1925-12-13,
1925-12-14,
1925-12-15,
1925-12-16,
1925-12-17,
1925-12-18,
1925-12-19,
1925-12-20,
1925-12-21,
1925-12-22,
1925-12-23,
1925-12-24,
1925-12-25,
1925-12-26,
1925-12-27,
1925-12-28,
1925-12-29,
1925-12-30,
1925-12-31,
1926-01-01,
1926-01-02,
1926-01-03,
1926-01-04,
1926-01-05,
1926-01-06,
1926-01-07,
1926-01-08,
1926-01-09,
1926-01-10,
1926-01-11,
1926-01-12,
1926-01-13,
1926-01-14,
1926-01-15,
1926-01-16,
1926-01-17,
1926-01-18,
1926-01-19,
1926-01-20,
1926-01-21,
1926-01-22,
1926-01-23,
1926-01-24,
1926-01-25,
1926-01-26,
1926-01-27,
1926-01-28,
1926-01-29,
1926-01-30,
1926-01-31,
1926-02-01,
1926-02-02,
1926-02-03,
1926-02-04,
1926-02-05,
1926-02-06,
1926-02-07,
1926-02-08,
1926-02-09,
1926-02-10,
1926-02-11,
1926-02-12,
1926-02-13,
1926-02-14,
1926-02-15,
1926-02-16,
1926-02-17,
1926-02-18,
1926-02-19,
1926-02-20,
1926-02-21,
1926-02-22,
1926-02-23,
1926-02-24,
1926-02-25,
1926-02-26,
1926-02-27,
1926-02-28,
1926-03-01,
1926-03-02,
1926-03-03,
1926-03-04,
1926-03-05,
1926-03-06,
1926-03-07,
1926-03-08,
1926-03-09,
1926-03-10,
1926-03-11,
1926-03-12,
1926-03-13,
1926-03-14,
1926-03-15,
1926-03-16,
1926-03-17,
1926-03-18,
1926-03-19,
1926-03-20,
1926-03-21,
1926-03-22,
1926-03-23,
1926-03-24,
1926-03-25,
1926-03-26,
1926-03-27,
1926-03-28,
1926-03-29,
1926-03-30,
1926-03-31,
1926-04-01,
1926-04-02,
1926-04-03,
1926-04-04,
1926-04-05,
1926-04-06,
1926-04-07,
1926-04-08,
1926-04-09,
1926-04-10,
1926-04-11,
1926-04-12,
1926-04-13,
1926-04-14,
1926-04-15,
1926-04-16,
1926-04-17,
1926-04-18,
1926-04-19,
1926-04-20,
1926-04-21,
1926-04-22,
1926-04-23,
1926-04-24,
1926-04-25,
1926-04-26,
1926-04-27,
1926-04-28,
1926-04-29,
1926-04-30,
1926-05-01,
1926-05-02,
1926-05-03,
1926-05-04,
1926-05-05,
1926-05-06,
1926-05-07,
1926-05-08,
1926-05-09,
1926-05-10,
1926-05-11,
1926-05-12,
1926-05-13,
1926-05-14,
1926-05-15,
1926-05-16,
1926-05-17,
1926-05-18,
1926-05-19,
1926-05-20,
1926-05-21,
1926-05-22,
1926-05-23,
1926-05-24,
1926-05-25,
1926-05-26,
1926-05-27,
1926-05-28,
1926-05-29,
1926-05-30,
1926-05-31,
1926-06-01,
1926-06-02,
1926-06-03,
1926-06-04,
1926-06-05,
1926-06-06,
1926-06-07,
1926-06-08,
1926-06-09,
1926-06-10,
1926-06-11,
1926-06-12,
1926-06-13,
1926-06-14,
1926-06-15,
1926-06-16,
1926-06-17,
1926-06-18,
1926-06-19,
1926-06-20,
1926-06-21,
1926-06-22,
1926-06-23,
1926-06-24,
1926-06-25,
1926-06-26,
1926-06-27,
1926-06-28,
1926-06-29,
1926-06-30,
1926-07-01,
1926-07-02,
1926-07-03,
1926-07-04,
1926-07-05,
1926-07-06,
1926-07-07,
1926-07-08,
1926-07-09,
1926-07-10,
1926-07-11,
1926-07-12,
1926-07-13,
1926-07-14,
1926-07-15,
1926-07-16,
1926-07-17,
1926-07-18,
1926-07-19,
1926-07-20,
1926-07-21,
1926-07-22,
1926-07-23,
1926-07-24,
1926-07-25,
1926-07-26,
1926-07-27,
1926-07-28,
1926-07-29,
1926-07-30,
1926-07-31,
1926-08-01,
1926-08-02,
1926-08-03,
1926-08-04,
1926-08-05,
1926-08-06,
1926-08-07,
1926-08-08,
1926-08-09,
1926-08-10,
1926-08-11,
1926-08-12,
1926-08-13,
1926-08-14,
1926-08-15,
1926-08-16,
1926-08-17,
1926-08-18,
1926-08-19,
1926-08-20,
1926-08-21,
1926-08-22,
1926-08-23,
1926-08-24,
1926-08-25,
1926-08-26,
1926-08-27,
1926-08-28,
1926-08-29,
1926-08-30,
1926-08-31,
1926-09-01,
1926-09-02,
1926-09-03,
1926-09-04,
1926-09-05,
1926-09-06,
1926-09-07,
1926-09-08,
1926-09-09,
1926-09-10,
1926-09-11,
1926-09-12,
1926-09-13,
1926-09-14,
1926-09-15,
1926-09-16,
1926-09-17,
1926-09-18,
1926-09-19,
1926-09-20,
1926-09-21,
1926-09-22,
1926-09-23,
1926-09-24,
1926-09-25,
1926-09-26,
1926-09-27,
1926-09-28,
1926-09-29,
1926-09-30,
1926-10-01,
1926-10-02,
1926-10-03,
1926-10-04,
1926-10-05,
1926-10-06,
1926-10-07,
1926-10-08,
1926-10-09,
1926-10-10,
1926-10-11,
1926-10-12,
1926-10-13,
1926-10-14,
1926-10-15,
1926-10-16,
1926-10-17,
1926-10-18,
1926-10-19,
1926-10-20,
1926-10-21,
1926-10-22,
1926-10-23,
1926-10-24,
1926-10-25,
1926-10-26,
1926-10-27,
1926-10-28,
1926-10-29,
1926-10-30,
1926-10-31,
1926-11-01,
1926-11-02,
1926-11-03,
1926-11-04,
1926-11-05,
1926-11-06,
1926-11-07,
1926-11-08,
1926-11-09,
1926-11-10,
1926-11-11,
1926-11-12,
1926-11-13,
1926-11-14,
1926-11-15,
1926-11-16,
1926-11-17,
1926-11-18,
1926-11-19,
1926-11-20,
1926-11-21,
1926-11-22,
1926-11-23,
1926-11-24,
1926-11-25,
1926-11-26,
1926-11-27,
1926-11-28,
1926-11-29,
1926-11-30,
1926-12-01,
1926-12-02,
1926-12-03,
1926-12-04,
1926-12-05,
1926-12-06,
1926-12-07,
1926-12-08,
1926-12-09,
1926-12-10,
1926-12-11,
1926-12-12,
1926-12-13,
1926-12-14,
1926-12-15,
1926-12-16,
1926-12-17,
1926-12-18,
1926-12-19,
1926-12-20,
1926-12-21,
1926-12-22,
1926-12-23,
1926-12-24,
1926-12-25,
1926-12-26,
1926-12-27,
1926-12-28,
1926-12-29,
1926-12-30,
1926-12-31,
1927-01-01,23.0
1927-01-02,23.0
1927-01-03,27.0
1927-01-04,26.0
1927-01-05,25.0
1927-01-06,24.0
1927-01-07,24.0
1927-01-08,23.0
1927-01-09,23.0
1927-01-10,23.0
1927-01-11,22.0
1927-01-12,22.0
1927-01-13,22.0
1927-01-14,22.0
1927-01-15,22.0
1927-01-16,23.0
1927-01-17,23.0
1927-01-18,23.0
1927-01-19,23.0
1927-01-20,23.0
1927-01-21,24.0
1927-01-22,25.0
1927-01-23,24.0
1927-01-24,26.0
1927-01-25,26.0
1927-01-26,26.0
1927-01-27,26.0
1927-01-28,27.0
1927-01-29,26.0
1927-01-30,26.0
1927-01-31,26.0
1927-02-01,26.0
1927-02-02,26.0
1927-02-03,26.0
1927-02-04,26.0
1927-02-05,20.0
1927-02-06,23.0
1927-02-07,23.0
1927-02-08,25.0
1927-02-09,27.0
1927-02-10,28.0
1927-02-11,28.0
1927-02-12,29.0
1927-02-13,30.0
1927-02-14,30.0
1927-02-15,31.0
1927-02-16,31.0
1927-02-17,31.0
1927-02-18,32.0
1927-02-19,32.0
1927-02-20,32.0
1927-02-21,33.0
1927-02-22,34.0
1927-02-23,33.0
1927-02-24,33.0
1927-02-25,34.0
1927-02-26,35.0
1927-02-27,39.0
1927-02-28,39.0
1927-03-01,39.0
1927-03-02,34.0
1927-03-03,28.0
1927-03-04,31.0
1927-03-05,34.0
1927-03-06,34.0
1927-03-07,35.0
1927-03-08,35.0
1927-03-09,35.0
1927-03-10,32.0
1927-03-11,28.0
1927-03-12,24.0
1927-03-13,24.0
1927-03-14,32.0
1927-03-15,36.0
1927-03-16,38.0
1927-03-17,32.0
1927-03-18,34.0
1927-03-19,36.0
1927-03-20,27.0
1927-03-21,24.0
1927-03-22,32.0
1927-03-23,32.0
1927-03-24,34.0
1927-03-25,38.0
1927-03-26,43.0
1927-03-27,44.0
1927-03-28,44.0
1927-03-29,59.0
1927-03-30,74.0
1927-03-31,92.0
1927-04-01,72.0
1927-04-02,67.0
1927-04-03,71.0
1927-04-04,90.0
1927-04-05,84.0
1927-04-06,94.0
1927-04-07,92.0
1927-04-08,127.0
1927-04-09,155.0
1927-04-10,149.0
1927-04-11,158.0
1927-04-12,175.0
1927-04-13,135.0
1927-04-14,140.0
1927-04-15,122.0
1927-04-16,110.0
1927-04-17,94.0
1927-04-18,117.0
1927-04-19,117.0
1927-04-20,127.0
1927-04-21,140.0
1927-04-22,158.0
1927-04-23,206.0
1927-04-24,270.0
1927-04-25,220.0
1927-04-26,312.0
1927-04-27,288.0
1927-04-28,319.0
1927-04-29,360.0
1927-04-30,423.0
1927-05-01,441.0
1927-05-02,419.0
1927-05-03,407.0
1927-05-04,393.0
1927-05-05,385.0
1927-05-06,365.0
1927-05-07,363.0
1927-05-08,369.0
1927-05-09,343.0
1927-05-10,309.0
1927-05-11,285.0
1927-05-12,263.0
1927-05-13,240.0
1927-05-14,243.0
1927-05-15,267.0
1927-05-16,261.0
1927-05-17,269.0
1927-05-18,303.0
1927-05-19,291.0
1927-05-20,265.0
1927-05-21,252.0
1927-05-22,245.0
1927-05-23,209.0
1927-05-24,184.0
1927-05-25,171.0
1927-05-26,155.0
1927-05-27,148.0
1927-05-28,121.0
1927-05-29,105.0
1927-05-30,90.0
1927-05-31,80.0
1927-06-01,73.0
1927-06-02,68.0
1927-06-03,69.0
1927-06-04,67.0
1927-06-05,67.0
1927-06-06,66.0
1927-06-07,66.0
1927-06-08,66.0
1927-06-09,63.0
1927-06-10,60.0
1927-06-11,57.0
1927-06-12,148.0
1927-06-13,150.0
1927-06-14,118.0
1927-06-15,126.0
1927-06-16,150.0
1927-06-17,158.0
1927-06-18,120.0
1927-06-19,117.0
1927-06-20,118.0
1927-06-21,108.0
1927-06-22,104.0
1927-06-23,84.0
1927-06-24,74.0
1927-06-25,70.0
1927-06-26,72.0
1927-06-27,66.0
1927-06-28,58.0
1927-06-29,67.0
1927-06-30,67.0
1927-07-01,69.0
1927-07-02,72.0
1927-07-03,56.0
1927-07-04,55.0
1927-07-05,30.0
1927-07-06,30.0
1927-07-07,30.0
1927-07-08,30.0
1927-07-09,30.0
1927-07-10,30.0
1927-07-11,30.0
1927-07-12,30.0
1927-07-13,30.0
1927-07-14,30.0
1927-07-15,30.0
1927-07-16,30.0
1927-07-17,30.0
1927-07-18,30.0
1927-07-19,30.0
1927-07-20,30.0
1927-07-21,30.0
1927-07-22,30.0
1927-07-23,30.0
1927-07-24,56.0
1927-07-25,30.0
1927-07-26,30.0
1927-07-27,30.0
1927-07-28,30.0
1927-07-29,30.0
1927-07-30,30.0
1927-07-31,30.0
1927-08-01,24.0
1927-08-02,22.0
1927-08-03,20.0
1927-08-04,18.0
1927-08-05,16.0
1927-08-06,14.0
1927-08-07,14.0
1927-08-08,14.0
1927-08-09,29.0
1927-08-10,17.0
1927-08-11,17.0
1927-08-12,15.0
1927-08-13,15.0
1927-08-14,14.0
1927-08-15,13.0
1927-08-16,13.0
1927-08-17,12.0
1927-08-18,10.0
1927-08-19,14.0
1927-08-20,24.0
1927-08-21,30.0
1927-08-22,27.0
1927-08-23,17.0
1927-08-24,13.0
1927-08-25,11.0
1927-08-26,15.0
1927-08-27,10.0
1927-08-28,10.0
1927-08-29,10.0
1927-08-30,9.0
1927-08-31,9.0
1927-09-01,8.0
1927-09-02,8.0
1927-09-03,8.0
1927-09-04,7.0
1927-09-05,6.0
1927-09-06,6.0
1927-09-07,8.0
1927-09-08,26.0
1927-09-09,24.0
1927-09-10,22.0
1927-09-11,20.0
1927-09-12,31.0
1927-09-13,82.0
1927-09-14,67.0
1927-09-15,52.0
1927-09-16,44.0
1927-09-17,29.0
1927-09-18,43.0
1927-09-19,102.0
1927-09-20,78.0
1927-09-21,68.0
1927-09-22,62.0
1927-09-23,60.0
1927-09-24,60.0
1927-09-25,57.0
1927-09-26,73.0
1927-09-27,80.0
1927-09-28,68.0
1927-09-29,63.0
1927-09-30,58.0
1927-10-01,57.0
1927-10-02,55.0
1927-10-03,55.0
1927-10-04,54.0
1927-10-05,52.0
1927-10-06,52.0
1927-10-07,50.0
1927-10-08,50.0
1927-10-09,48.0
1927-10-10,48.0
1927-10-11,48.0
1927-10-12,47.0
1927-10-13,47.0
1927-10-14,45.0
1927-10-15,45.0
1927-10-16,42.0
1927-10-17,41.0
1927-10-18,39.0
1927-10-19,39.0
1927-10-20,36.0
1927-10-21,34.0
1927-10-22,32.0
1927-10-23,32.0
1927-10-24,33.0
1927-10-25,31.0
1927-10-26,31.0
1927-10-27,30.0
1927-10-28,31.0
1927-10-29,41.0
1927-10-30,32.0
1927-10-31,29.0
1927-11-01,27.0
1927-11-02,27.0
1927-11-03,27.0
1927-11-04,28.0
1927-11-05,29.0
1927-11-06,29.0
1927-11-07,30.0
1927-11-08,32.0
1927-11-09,32.0
1927-11-10,31.0
1927-11-11,31.0
1927-11-12,31.0
1927-11-13,30.0
1927-11-14,30.0
1927-11-15,30.0
1927-11-16,30.0
1927-11-17,30.0
1927-11-18,30.0
1927-11-19,31.0
1927-11-20,30.0
1927-11-21,30.0
1927-11-22,30.0
1927-11-23,30.0
1927-11-24,28.0
1927-11-25,27.0
1927-11-26,29.0
1927-11-27,30.0
1927-11-28,30.0
1927-11-29,30.0
1927-11-30,26.0
1927-12-01,25.0
1927-12-02,23.0
1927-12-03,30.0
1927-12-04,34.0
1927-12-05,32.0
1927-12-06,35.0
1927-12-07,17.0
1927-12-08,16.0
1927-12-09,17.0
1927-12-10,21.0
1927-12-11,29.0
1927-12-12,35.0
1927-12-13,31.0
1927-12-14,31.0
1927-12-15,31.0
1927-12-16,31.0
1927-12-17,32.0
1927-12-18,27.0
1927-12-19,15.0
1927-12-20,16.0
1927-12-21,18.0
1927-12-22,33.0
1927-12-23,49.0
1927-12-24,39.0
1927-12-25,23.0
1927-12-26,22.0
1927-12-27,22.0
1927-12-28,23.0
1927-12-29,24.0
1927-12-30,25.0
1927-12-31,21.0
1928-01-01,21.0
1928-01-02,25.0
1928-01-03,24.0
1928-01-04,23.0
1928-01-05,23.0
1928-01-06,20.0
1928-01-07,20.0
1928-01-08,19.0
1928-01-09,24.0
1928-01-10,24.0
1928-01-11,23.0
1928-01-12,24.0
1928-01-13,20.0
1928-01-14,21.0
1928-01-15,27.0
1928-01-16,30.0
1928-01-17,25.0
1928-01-18,23.0
1928-01-19,24.0
1928-01-20,25.0
1928-01-21,27.0
1928-01-22,23.0
1928-01-23,20.0
1928-01-24,18.0
1928-01-25,16.0
1928-01-26,13.0
1928-01-27,11.0
1928-01-28,19.0
1928-01-29,24.0
1928-01-30,25.0
1928-01-31,24.0
1928-02-01,25.0
1928-02-02,23.0
1928-02-03,32.0
1928-02-04,40.0
1928-02-05,36.0
1928-02-06,34.0
1928-02-07,38.0
1928-02-08,44.0
1928-02-09,30.0
1928-02-10,20.0
1928-02-11,19.0
1928-02-12,32.0
1928-02-13,25.0
1928-02-14,36.0
1928-02-15,40.0
1928-02-16,23.0
1928-02-17,21.0
1928-02-18,9.0
1928-02-19,13.0
1928-02-20,19.0